Regional Weather Roundup
Issued by NWS

Home | Current Version | Previous Version | Graphics & Text | Print | Product List | Glossary On
Versions: 1 2 3 4 5 6 7 8 9 10 11 12 13 14 15 16 17 18 19 20 21 22 23 24 25 26 27 28 29 30 31 32 33 34 35 36 37 38 39 40 41 42 43 44 45 46 47 48 49 50
000
ASUS45 KABQ 302210
RWRNM
WEATHER ROUNDUP FOR NEW MEXICO
NATIONAL WEATHER SERVICE ALBUQUERQUE NM
300 PM MST FRI JAN 30 2015

NOTE: "FAIR" MEANS FEW OR NO CLOUDS BELOW 12,000 FEET AGL WITH NO
       SIGNIFICANT WEATHER OR OBSTRUCTIONS TO VISION.

      THIS PRODUCT IS RELEASED AS TWO VERSIONS.  ONE VERSION NEAR
      THE TOP OF THE HOUR CONTAINING PRELIMINARY DATA FROM ALBUQUERQUE
      AND OTHER STATIONS.  A FINAL VERSION WITH ADDITIONAL DATA IS
      ISSUED ABOUT 10 MINUTES AFTER THE HOUR.

NMZ501-503-504-510>518-302300-
NORTHWEST PLATEAU/NORTHCENTRAL MOUNTAINS

CITY           SKY/WX    TMP DP  RH WIND       PRES   REMARKS
FARMINGTON     LGT SNOW  33  32  96 E10       30.05F FOG     WCI  25
LOS ALAMOS     LGT SNOW  29  29 100 SW8       30.15F WCI  21
SANTA FE       CLOUDY    32  27  81 S6        30.14F WCI  26
TAOS           CLOUDY    28  27  93 CALM      30.16F
ANGEL FIRE     LGT SNOW  32  31  94 S3        30.10F

$$
NMZ402-403-502-505>509-302300-
WESTCENTRAL MOUNTAINS/SOUTHWEST MOUNTAINS

CITY           SKY/WX    TMP DP  RH WIND       PRES   REMARKS
GALLUP         LGT SNOW  35  31  85 NE6       30.01S FOG     WCI  30
GRANTS         CLOUDY    32  30  91 SE13G25   30.07S WCI  22
SILVER CITY    CLOUDY    39  39 100 E10       30.07F FOG     WCI  32

$$
NMZ407-409-411-412-302300-
SOUTHERN DESERTS

CITY           SKY/WX    TMP DP  RH WIND       PRES   REMARKS
LORDSBURG      LGT RAIN  43  39  87 SE18G30   30.01F
DEMING         CLOUDY    44  40  85 E14       30.06F
LAS CRUCES     DRIZZLE   44  41  89 SE9       30.07F
HOLLOMAN AFB   DRIZZLE   45  43  93 N7        30.08F
ALAMOGORDO     LGT RAIN  45  43  93 N9        30.10F
T OR C         LGT RAIN  39  38  96 NE7       30.08F WCI  34

$$
NMZ519>523-302300-
CENTRAL VALLEYS/CENTRAL HIGHLANDS

CITY           SKY/WX    TMP DP  RH WIND       PRES   REMARKS
ALBUQUERQUE    LGT RAIN  37  31  78 E13       30.11F WCI  29
DOUBLE EAGLE   CLOUDY    30  28  93 N10       30.12F FOG     WCI  21
MORIARTY ARPT  CLOUDY    32  28  88 SE6       30.17S WCI  26
CLINES CORNERS FOG       28  26  92 SE12      30.12F VSB<1/4 WCI  18
BELEN          CLOUDY    35  35 100 N3        30.12F
SOCORRO        LGT RAIN  37  37  98 N3        30.11F

$$
NMZ524>526-539-540-302300-
SOUTHCENTRAL MOUNTAINS

CITY           SKY/WX    TMP DP  RH WIND       PRES   REMARKS
RUIDOSO        CLOUDY    32  32 100 SE8       30.15F WCI  25

$$
NMZ527>531-302300-
NORTHEAST HIGHLANDS/NORTHEAST PLAINS

CITY           SKY/WX    TMP DP  RH WIND       PRES   REMARKS
LAS VEGAS      CLOUDY    28  26  92 S9        30.15F WCI  19
RATON          LGT SNOW  30  28  92 SW8       30.15F FOG     WCI  22
CLAYTON        LGT SNOW  34  32  92 S16       30.19F FOG     WCI  24

$$
NMZ532>537-302300-
EASTCENTRAL PLAINS

CITY           SKY/WX    TMP DP  RH WIND       PRES   REMARKS
TUCUMCARI      LGT RAIN  37  34  89 SE5       30.23F WCI  33
CANNON AFB     CLOUDY    36  31  82 SE7       30.23F WCI  30
CLOVIS AIRPORT CLOUDY    36  28  75 S8        30.24F WCI  29

$$
NMZ028-029-538-302300-
SOUTHEAST PLAINS

CITY           SKY/WX    TMP DP  RH WIND       PRES   REMARKS
ROSWELL        CLOUDY    41  31  67 SE7       30.21F
ARTESIA        CLOUDY    41  34  75 SE7       30.23F
CARLSBAD       CLOUDY    43  33  68 E8        30.21F
HOBBS          CLOUDY    41  32  70 E10       30.24F


$$



USA.gov is the U.S. government's official web portal to all federal, state and local government web resources and services.